Location: Wayah Bald
(35.1806°N, 83.5603°W)
Time: 13:06:14
(UTC-05:00)

Meteor 1-27 Rocket - Visible Passes

Search period start: 01 March 2017 00:00
Search period end: 11 March 2017 00:00
Orbit: 830 x 910 km, 81.3° (Epoch: 01 March)

Date Brightness Start Highest point End Pass type
(mag) Time Alt. Az. Time Alt. Az. Time Alt. Az.
01 Mar 4.5 05:27:41 10° S 05:33:18 55° E 05:39:02 10° NNE visible
02 Mar 4.5 05:21:28 10° S 05:27:07 57° E 05:32:53 10° NNE visible
03 Mar 4.4 05:15:15 10° S 05:20:55 59° E 05:26:43 10° NNE visible
04 Mar 4.3 05:09:02 10° S 05:14:43 61° E 05:20:33 10° NNE visible
05 Mar 4.2 05:02:48 10° S 05:08:32 63° E 05:14:23 10° NNE visible
06 Mar 4.2 04:56:36 10° S 05:02:21 65° E 05:08:13 10° NNE visible
07 Mar 4.1 04:50:23 10° S 04:56:10 68° E 05:02:03 10° NNE visible
08 Mar 4.0 04:45:22 17° S 04:49:58 70° E 04:55:53 10° NNE visible
09 Mar 4.0 04:40:44 30° S 04:43:48 72° E 04:49:42 10° NNE visible
09 Mar 5.4 06:24:54 10° W 06:27:42 14° WNW 06:30:34 10° NW visible
10 Mar 3.9 04:35:44 45° S 04:37:36 75° E 04:43:32 10° NNE visible
10 Mar 5.5 06:18:54 10° W 06:21:33 13° WNW 06:24:14 10° NW visible
